| time (UTC) | temp F | wind direction | speed MPH | gust MPH | rain 1hr in | rain 24hr in | rain mn in | humidity % | barometer mb |
| 20260503203032 | 64 | 248 | 3.0 | 10.0 | 0.00 | 0.00 | 0.00 | 29 | 1015.5 |
| 20260503202530 | 64 | 273 | 6.0 | 10.0 | 0.00 | 0.00 | 0.00 | 28 | 1015.4 |
| 20260503202027 | 64 | 270 | 5.0 | 10.0 | 0.00 | 0.00 | 0.00 | 26 | 1015.8 |
| 20260503201525 | 64 | 233 | 4.0 | 5.0 | 0.00 | 0.00 | 0.00 | 30 | 1016.2 |
| 20260503201022 | 63 | 260 | 3.0 | 10.0 | 0.00 | 0.00 | 0.00 | 27 | 1016.1 |
| 20260503200518 | 63 | 333 | 9.0 | 11.0 | 0.00 | 0.00 | 0.00 | 28 | 1016.1 |
| 20260503200015 | 63 | 267 | 5.0 | 11.0 | 0.00 | 0.00 | 0.00 | 30 | 1016.1 |
| 20260503195513 | 63 | 292 | 5.0 | 8.0 | 0.00 | 0.00 | 0.00 | 27 | 1016.1 |
| 20260503195009 | 63 | 323 | 4.0 | 14.0 | 0.00 | 0.00 | 0.00 | 27 | 1016.2 |
| 20260503194507 | 63 | 221 | 2.0 | 10.0 | 0.00 | 0.00 | 0.00 | 30 | 1016.3 |
| 20260503194006 | 63 | 313 | 5.0 | 11.0 | 0.00 | 0.00 | 0.00 | 30 | 1016.5 |
| 20260503193503 | 63 | 28 | 5.0 | 8.0 | 0.00 | 0.00 | 0.00 | 28 | 1016.6 |
| 20260503192958 | 62 | 210 | 4.0 | 14.0 | 0.00 | 0.00 | 0.00 | 27 | 1016.8 |
| 20260503192454 | 62 | 335 | 11.0 | 16.0 | 0.00 | 0.00 | 0.00 | 27 | 1016.7 |
| 20260503191950 | 63 | 288 | 7.0 | 10.0 | 0.00 | 0.00 | 0.00 | 30 | 1016.8 |
| 20260503191448 | 62 | 89 | 0.0 | 5.0 | 0.00 | 0.00 | 0.00 | 37 | 1016.9 |
| 20260503190944 | 62 | 237 | 5.0 | 8.0 | 0.00 | 0.00 | 0.00 | 30 | 1016.9 |
| 20260503190442 | 62 | 299 | 7.0 | 10.0 | 0.00 | 0.00 | 0.00 | 30 | 1016.9 |
| 20260503185938 | 61 | 225 | 5.0 | 7.0 | 0.00 | 0.00 | 0.00 | 30 | 1017.0 |
| 20260503185435 | 62 | 324 | 6.0 | 8.0 | 0.00 | 0.00 | 0.00 | 29 | 1017.2 |
| 20260503184934 | 61 | 256 | 5.0 | 10.0 | 0.00 | 0.00 | 0.00 | 34 | 1016.9 |
| 20260503184431 | 61 | 319 | 6.0 | 8.0 | 0.00 | 0.00 | 0.00 | 30 | 1017.4 |
| 20260503183927 | 61 | 336 | 3.0 | 7.0 | 0.00 | 0.00 | 0.00 | 32 | 1017.3 |
| 20260503183424 | 60 | 240 | 7.0 | 13.0 | 0.00 | 0.00 | 0.00 | 32 | 1017.3 |
| 20260503182921 | 60 | 345 | 8.0 | 14.0 | 0.00 | 0.00 | 0.00 | 30 | 1017.4 |
| 20260503182420 | 60 | 318 | 6.0 | 13.0 | 0.00 | 0.00 | 0.00 | 29 | 1017.2 |
| 20260503181917 | 60 | 284 | 9.0 | 13.0 | 0.00 | 0.00 | 0.00 | 30 | 1017.4 |
| 20260503181414 | 61 | 188 | 9.0 | 11.0 | 0.00 | 0.00 | 0.00 | 31 | 1017.4 |
| 20260503180910 | 60 | 0 | 4.0 | 10.0 | 0.00 | 0.00 | 0.00 | 32 | 1017.5 |
| 20260503180408 | 59 | 301 | 8.0 | 11.0 | 0.00 | 0.00 | 0.00 | 32 | 1017.6 |
| 20260503175904 | 59 | 204 | 8.0 | 14.0 | 0.00 | 0.00 | 0.00 | 31 | 1017.6 |
| 20260503175403 | 59 | 316 | 4.0 | 8.0 | 0.00 | 0.00 | 0.00 | 34 | 1017.8 |
| 20260503174858 | 60 | 243 | 5.0 | 13.0 | 0.00 | 0.00 | 0.00 | 32 | 1017.7 |
| 20260503174356 | 59 | 301 | 5.0 | 16.0 | 0.00 | 0.00 | 0.00 | 32 | 1017.7 |
| 20260503173851 | 59 | 282 | 3.0 | 11.0 | 0.00 | 0.00 | 0.00 | 35 | 1017.6 |
| 20260503173348 | 58 | 260 | 5.0 | 7.0 | 0.00 | 0.00 | 0.00 | 33 | 1017.9 |
| 20260503172844 | 58 | 29 | 6.0 | 10.0 | 0.00 | 0.00 | 0.00 | 33 | 1017.7 |
| 20260503172342 | 58 | 221 | 1.0 | 13.0 | 0.00 | 0.00 | 0.00 | 32 | 1018.1 |
| 20260503171838 | 59 | 345 | 10.0 | 13.0 | 0.00 | 0.00 | 0.00 | 35 | 1017.9 |
| 20260503171335 | 58 | 256 | 7.0 | 13.0 | 0.00 | 0.00 | 0.00 | 35 | 1018.0 |
| 20260503170832 | 59 | 316 | 9.0 | 18.0 | 0.00 | 0.00 | 0.00 | 33 | 1017.9 |
| 20260503170328 | 59 | 163 | 0.0 | 7.0 | 0.00 | 0.00 | 0.00 | 37 | 1018.1 |
| 20260503150721 | 54 | 307 | 6.0 | 13.0 | 0.00 | 0.00 | 0.00 | 36 | 1019.1 |
| 20260503150217 | 54 | 275 | 9.0 | 16.0 | 0.00 | 0.00 | 0.00 | 36 | 1019.1 |
| 20260503140141 | 51 | 335 | 9.0 | 11.0 | 0.00 | 0.00 | 0.00 | 42 | 1019.3 |
| 20260503131111 | 50 | 307 | 6.0 | 11.0 | 0.00 | 0.00 | 0.00 | 47 | 1019.7 |
| 20260503130609 | 49 | 22 | 8.0 | 14.0 | 0.00 | 0.00 | 0.00 | 47 | 1019.4 |
| 20260503130106 | 49 | 318 | 8.0 | 10.0 | 0.00 | 0.00 | 0.00 | 49 | 1019.6 |
| 20260503110458 | 38 | 171 | 0.0 | 2.0 | 0.00 | 0.00 | 0.00 | 76 | 1018.6 |
| 20260503090344 | 42 | 342 | 1.0 | 2.0 | 0.00 | 0.00 | 0.00 | 64 | 1017.4 |
| 20260503081311 | 43 | 335 | 3.0 | 7.0 | 0.00 | 0.00 | 0.00 | 62 | 1017.4 |
| 20260503080808 | 43 | 327 | 3.0 | 3.0 | 0.00 | 0.00 | 0.00 | 63 | 1017.3 |
| 20260503080305 | 43 | 289 | 4.0 | 7.0 | 0.00 | 0.00 | 0.00 | 63 | 1017.3 |
| 20260503072741 | 41 | 243 | 0.0 | 0.0 | 0.00 | 0.00 | 0.00 | 70 | 1016.8 |
| 20260503072238 | 42 | 245 | 1.0 | 2.0 | 0.00 | 0.00 | 0.00 | 71 | 1016.8 |
| 20260503071734 | 42 | 246 | 0.0 | 2.0 | 0.00 | 0.00 | 0.00 | 69 | 1016.7 |
| 20260503071231 | 42 | 247 | 0.0 | 0.0 | 0.00 | 0.00 | 0.00 | 69 | 1016.8 |
| 20260503070728 | 42 | 247 | 0.0 | 0.0 | 0.00 | 0.00 | 0.00 | 68 | 1017.0 |
| 20260503070226 | 42 | 252 | 2.0 | 3.0 | 0.00 | 0.00 | 0.00 | 66 | 1016.6 |
| 20260503060151 | 44 | 302 | 2.0 | 5.0 | 0.00 | 0.00 | 0.00 | 61 | 1016.6 |
| 20260503054638 | 44 | 329 | 4.0 | 7.0 | 0.00 | 0.00 | 0.00 | 60 | 1016.4 |
| 20260503054135 | 44 | 326 | 4.0 | 10.0 | 0.00 | 0.00 | 0.00 | 59 | 1016.5 |
| 20260503053633 | 43 | 297 | 3.0 | 5.0 | 0.00 | 0.00 | 0.00 | 62 | 1016.5 |
| 20260503053132 | 41 | 342 | 7.0 | 10.0 | 0.00 | 0.00 | 0.00 | 65 | 1016.5 |
| 20260503052628 | 39 | 254 | 5.0 | 7.0 | 0.00 | 0.00 | 0.00 | 76 | 1016.5 |
| 20260503052124 | 38 | 163 | 0.0 | 2.0 | 0.00 | 0.00 | 0.00 | 75 | 1016.2 |
| 20260503051619 | 38 | 191 | 2.0 | 2.0 | 0.00 | 0.00 | 0.00 | 75 | 1016.3 |
| 20260503051118 | 38 | 121 | 1.0 | 2.0 | 0.00 | 0.00 | 0.00 | 75 | 1016.4 |
| 20260503050614 | 39 | 248 | 1.0 | 2.0 | 0.00 | 0.00 | 0.00 | 74 | 1016.5 |
| 20260503050110 | 39 | 191 | 0.0 | 3.0 | 0.00 | 0.00 | 0.00 | 74 | 1016.6 |
| 20260503045608 | 39 | 149 | 0.0 | 0.0 | 0.00 | 0.00 | 0.00 | 74 | 1016.4 |
| 20260503045105 | 40 | 160 | 0.0 | 2.0 | 0.00 | 0.00 | 0.00 | 72 | 1016.5 |
| 20260503044601 | 39 | 168 | 0.0 | 2.0 | 0.00 | 0.00 | 0.00 | 72 | 1016.9 |
| 20260503044059 | 39 | 169 | 1.0 | 2.0 | 0.00 | 0.00 | 0.00 | 72 | 1016.6 |
| 20260503043555 | 40 | 188 | 0.0 | 2.0 | 0.00 | 0.00 | 0.00 | 70 | 1016.6 |
| 20260503043052 | 39 | 178 | 2.0 | 3.0 | 0.00 | 0.00 | 0.00 | 72 | 1016.5 |
| 20260503042549 | 40 | 161 | 0.0 | 0.0 | 0.00 | 0.00 | 0.00 | 71 | 1016.7 |
| 20260503042045 | 40 | 164 | 0.0 | 0.0 | 0.00 | 0.00 | 0.00 | 70 | 1016.7 |
| 20260503041542 | 41 | 164 | 0.0 | 0.0 | 0.00 | 0.00 | 0.00 | 67 | 1016.5 |
| 20260503041040 | 42 | 160 | 0.0 | 0.0 | 0.00 | 0.00 | 0.00 | 66 | 1016.6 |
| 20260503040537 | 43 | 134 | 1.0 | 2.0 | 0.00 | 0.00 | 0.00 | 65 | 1016.6 |
| 20260503040034 | 44 | 202 | 0.0 | 2.0 | 0.00 | 0.00 | 0.00 | 62 | 1016.5 |
| 20260503035531 | 44 | 132 | 0.0 | 2.0 | 0.00 | 0.00 | 0.00 | 60 | 1016.5 |
| 20260503035029 | 45 | 100 | 2.0 | 3.0 | 0.00 | 0.00 | 0.00 | 59 | 1016.5 |
| 20260503034526 | 45 | 321 | 4.0 | 5.0 | 0.00 | 0.00 | 0.00 | 58 | 1016.5 |
| 20260503034022 | 45 | 197 | 0.0 | 2.0 | 0.00 | 0.00 | 0.00 | 58 | 1016.5 |
| 20260503033520 | 45 | 168 | 0.0 | 2.0 | 0.00 | 0.00 | 0.00 | 58 | 1016.5 |
| 20260503033018 | 46 | 158 | 0.0 | 2.0 | 0.00 | 0.00 | 0.00 | 57 | 1016.4 |
| 20260503032516 | 46 | 248 | 2.0 | 3.0 | 0.00 | 0.00 | 0.00 | 57 | 1016.5 |
| 20260503032014 | 46 | 211 | 1.0 | 3.0 | 0.00 | 0.00 | 0.00 | 56 | 1016.4 |
| 20260503031511 | 47 | 330 | 3.0 | 5.0 | 0.00 | 0.00 | 0.00 | 55 | 1016.8 |
| 20260503031008 | 46 | 130 | 0.0 | 2.0 | 0.00 | 0.00 | 0.00 | 56 | 1016.6 |
| 20260503030504 | 46 | 133 | 0.0 | 2.0 | 0.00 | 0.00 | 0.00 | 56 | 1016.4 |
| 20260503030001 | 47 | 156 | 0.0 | 0.0 | 0.00 | 0.00 | 0.00 | 55 | 1016.6 |
| 20260503025458 | 47 | 320 | 7.0 | 8.0 | 0.00 | 0.00 | 0.00 | 54 | 1016.7 |
| 20260503024956 | 48 | 261 | 2.0 | 3.0 | 0.00 | 0.00 | 0.00 | 54 | 1016.6 |
| 20260503024451 | 48 | 335 | 5.0 | 7.0 | 0.00 | 0.00 | 0.00 | 53 | 1016.5 |
| 20260503023949 | 48 | 157 | 0.0 | 8.0 | 0.00 | 0.00 | 0.00 | 53 | 1016.5 |
| 20260503023446 | 48 | 95 | 0.0 | 7.0 | 0.00 | 0.00 | 0.00 | 53 | 1016.5 |
| 20260503022943 | 48 | 26 | 3.0 | 7.0 | 0.00 | 0.00 | 0.00 | 53 | 1016.4 |
| 20260503022438 | 49 | 290 | 3.0 | 5.0 | 0.00 | 0.00 | 0.00 | 52 | 1016.5 |
| 20260503021934 | 49 | 313 | 3.0 | 8.0 | 0.00 | 0.00 | 0.00 | 52 | 1016.2 |
| 20260503021430 | 50 | 319 | 3.0 | 10.0 | 0.00 | 0.00 | 0.00 | 51 | 1016.2 |
| 20260503020928 | 50 | 314 | 5.0 | 10.0 | 0.00 | 0.00 | 0.00 | 50 | 1016.4 |
| 20260503020425 | 50 | 16 | 5.0 | 8.0 | 0.00 | 0.00 | 0.00 | 49 | 1016.3 |
| 20260503015922 | 50 | 299 | 10.0 | 13.0 | 0.00 | 0.00 | 0.00 | 49 | 1016.1 |
| 20260503015419 | 51 | 64 | 7.0 | 14.0 | 0.00 | 0.00 | 0.00 | 49 | 1016.2 |
| 20260503014914 | 51 | 81 | 3.0 | 14.0 | 0.00 | 0.00 | 0.00 | 48 | 1016.1 |
| 20260503014412 | 51 | 40 | 4.0 | 13.0 | 0.00 | 0.00 | 0.00 | 48 | 1016.0 |
| 20260503013910 | 51 | 333 | 3.0 | 13.0 | 0.00 | 0.00 | 0.00 | 48 | 1016.0 |
| 20260503013406 | 51 | 343 | 7.0 | 11.0 | 0.00 | 0.00 | 0.00 | 48 | 1015.9 |
| 20260503012903 | 51 | 9 | 3.0 | 7.0 | 0.00 | 0.00 | 0.00 | 48 | 1015.8 |
| 20260503012401 | 51 | 231 | 1.0 | 3.0 | 0.00 | 0.00 | 0.00 | 48 | 1015.9 |
| 20260503011857 | 51 | 307 | 4.0 | 10.0 | 0.00 | 0.00 | 0.00 | 47 | 1015.5 |
| 20260503011355 | 52 | 185 | 1.0 | 3.0 | 0.00 | 0.00 | 0.00 | 48 | 1015.6 |
| 20260503010851 | 52 | 338 | 7.0 | 11.0 | 0.00 | 0.00 | 0.00 | 47 | 1015.6 |
| 20260503010348 | 52 | 36 | 2.0 | 3.0 | 0.00 | 0.00 | 0.00 | 48 | 1015.3 |
| 20260503005845 | 52 | 136 | 1.0 | 3.0 | 0.00 | 0.00 | 0.00 | 48 | 1015.3 |
| 20260503005343 | 52 | 219 | 2.0 | 10.0 | 0.00 | 0.00 | 0.00 | 47 | 1015.3 |
| 20260503004838 | 52 | 351 | 3.0 | 5.0 | 0.00 | 0.00 | 0.00 | 47 | 1014.9 |
| 20260503004336 | 52 | 339 | 5.0 | 10.0 | 0.00 | 0.00 | 0.00 | 46 | 1014.8 |
| 20260503003833 | 53 | 332 | 3.0 | 7.0 | 0.00 | 0.00 | 0.00 | 47 | 1014.9 |
| 20260503003330 | 53 | 359 | 5.0 | 7.0 | 0.00 | 0.00 | 0.00 | 46 | 1014.8 |
| 20260503002827 | 53 | 322 | 5.0 | 8.0 | 0.00 | 0.00 | 0.00 | 45 | 1014.7 |
| 20260503002324 | 53 | 156 | 0.0 | 2.0 | 0.00 | 0.00 | 0.00 | 45 | 1014.7 |
| 20260503001821 | 53 | 326 | 3.0 | 5.0 | 0.00 | 0.00 | 0.00 | 44 | 1014.7 |
| 20260503001317 | 53 | 221 | 1.0 | 3.0 | 0.00 | 0.00 | 0.00 | 45 | 1014.4 |
| 20260503000815 | 53 | 179 | 0.0 | 2.0 | 0.00 | 0.00 | 0.00 | 46 | 1014.3 |
| 20260503000312 | 53 | 194 | 0.0 | 5.0 | 0.00 | 0.00 | 0.00 | 44 | 1014.4 |
| 20260502235809 | 54 | 47 | 2.0 | 3.0 | 0.00 | 0.00 | 0.00 | 43 | 1014.3 |
| 20260502235306 | 54 | 343 | 1.0 | 3.0 | 0.00 | 0.00 | 0.00 | 42 | 1014.4 |
| 20260502234803 | 54 | 357 | 5.0 | 8.0 | 0.00 | 0.00 | 0.00 | 42 | 1014.0 |
| 20260502234300 | 54 | 345 | 4.0 | 7.0 | 0.00 | 0.00 | 0.00 | 41 | 1014.1 |
| 20260502233756 | 55 | 336 | 5.0 | 10.0 | 0.00 | 0.00 | 0.00 | 40 | 1013.8 |
| 20260502233253 | 55 | 313 | 5.0 | 8.0 | 0.00 | 0.00 | 0.00 | 41 | 1013.9 |
| 20260502232749 | 55 | 332 | 5.0 | 7.0 | 0.00 | 0.00 | 0.00 | 41 | 1013.8 |
| 20260502232246 | 55 | 308 | 3.0 | 7.0 | 0.00 | 0.00 | 0.00 | 40 | 1013.9 |
| 20260502231742 | 55 | 353 | 10.0 | 13.0 | 0.00 | 0.00 | 0.00 | 40 | 1013.9 |
| 20260502231240 | 55 | 313 | 5.0 | 7.0 | 0.00 | 0.00 | 0.00 | 39 | 1013.7 |
| 20260502230739 | 55 | 338 | 5.0 | 8.0 | 0.00 | 0.00 | 0.00 | 39 | 1013.8 |
| 20260502230237 | 55 | 0 | 9.0 | 13.0 | 0.00 | 0.00 | 0.00 | 38 | 1013.7 |
| 20260502225732 | 56 | 52 | 2.0 | 8.0 | 0.00 | 0.00 | 0.00 | 37 | 1013.6 |
| 20260502225230 | 56 | 20 | 10.0 | 11.0 | 0.00 | 0.00 | 0.00 | 37 | 1013.7 |
| 20260502224726 | 57 | 36 | 5.0 | 11.0 | 0.00 | 0.00 | 0.00 | 36 | 1013.5 |
| 20260502224223 | 57 | 166 | 3.0 | 8.0 | 0.00 | 0.00 | 0.00 | 36 | 1013.5 |
| 20260502223720 | 56 | 24 | 3.0 | 7.0 | 0.00 | 0.00 | 0.00 | 37 | 1013.5 |
| 20260502223218 | 56 | 9 | 6.0 | 8.0 | 0.00 | 0.00 | 0.00 | 37 | 1013.5 |
| 20260502222715 | 56 | 249 | 7.0 | 10.0 | 0.00 | 0.00 | 0.00 | 36 | 1013.4 |
| 20260502222212 | 57 | 354 | 7.0 | 10.0 | 0.00 | 0.00 | 0.00 | 36 | 1013.7 |
| 20260502221708 | 57 | 303 | 8.0 | 13.0 | 0.00 | 0.00 | 0.00 | 36 | 1013.5 |
| 20260502221205 | 57 | 336 | 9.0 | 13.0 | 0.00 | 0.00 | 0.00 | 35 | 1013.5 |
| 20260502220701 | 57 | 232 | 6.0 | 11.0 | 0.00 | 0.00 | 0.00 | 35 | 1013.6 |
| 20260502220157 | 58 | 292 | 7.0 | 8.0 | 0.00 | 0.00 | 0.00 | 36 | 1013.2 |
| 20260502215654 | 57 | 346 | 5.0 | 10.0 | 0.00 | 0.00 | 0.00 | 38 | 1013.2 |
| 20260502215151 | 57 | 311 | 8.0 | 11.0 | 0.00 | 0.00 | 0.00 | 37 | 1013.4 |
| 20260502214649 | 57 | 45 | 5.0 | 10.0 | 0.00 | 0.00 | 0.00 | 37 | 1013.4 |
| 20260502214146 | 57 | 65 | 6.0 | 14.0 | 0.00 | 0.00 | 0.00 | 37 | 1013.3 |
| 20260502213643 | 57 | 4 | 3.0 | 11.0 | 0.00 | 0.00 | 0.00 | 38 | 1013.6 |
| 20260502213140 | 57 | 6 | 5.0 | 7.0 | 0.00 | 0.00 | 0.00 | 39 | 1013.5 |
| 20260502212639 | 57 | 180 | 3.0 | 7.0 | 0.00 | 0.00 | 0.00 | 40 | 1013.5 |
| 20260502212137 | 57 | 78 | 4.0 | 14.0 | 0.00 | 0.00 | 0.00 | 37 | 1013.2 |
| 20260502211632 | 58 | 281 | 7.0 | 11.0 | 0.00 | 0.00 | 0.00 | 36 | 1013.4 |
| 20260502211129 | 57 | 266 | 3.0 | 8.0 | 0.00 | 0.00 | 0.00 | 39 | 1013.3 |
| 20260502210627 | 57 | 354 | 6.0 | 10.0 | 0.00 | 0.00 | 0.00 | 38 | 1013.3 |
| 20260502210124 | 58 | 327 | 8.0 | 13.0 | 0.00 | 0.00 | 0.00 | 38 | 1013.3 |
| 20260502205620 | 60 | 300 | 3.0 | 11.0 | 0.00 | 0.00 | 0.00 | 34 | 1013.2 |
| 20260502205117 | 59 | 75 | 7.0 | 10.0 | 0.00 | 0.00 | 0.00 | 35 | 1013.4 |
| 20260502204614 | 59 | 128 | 4.0 | 8.0 | 0.00 | 0.00 | 0.00 | 35 | 1013.5 |
| 20260502204112 | 59 | 299 | 6.0 | 11.0 | 0.00 | 0.00 | 0.00 | 36 | 1013.5 |
| 20260502203609 | 59 | 348 | 10.0 | 13.0 | 0.00 | 0.00 | 0.00 | 37 | 1013.4 |